Location: Potomac
(46.8816°N, 113.5795°W)
Time: 03:24:41
(UTC+00:00)

UKube-1 - Pass Details

Date: 30 June 2022
Orbit: 608 x 615 km, 98.4° (Epoch: 13 August)

Event Time Altitude Azimuth Distance (km) Brightness Sun altitude
Rises 05:42:01 0° 13° (NNE) 2,897 ? -15.2°
Reaches altitude 10° 05:44:12 10° 14° (NNE) 1,986 ? -15.4°
Maximum altitude 05:48:32 88° 287° (WNW) 621 ? -15.7°
Enters shadow 05:51:27 20° 196° (SSW) 1,418 ? -15.9°
